#timestamp,LO_Frequency,Hit,StdDev 
1605034815.4,286047004.1,N
1605034835.2,286047003.2,N
1605034855.1,286047004.3,N
1605034856.0,286047004.3,N
1605034875.8,286047002.3,N
1605034895.6,286046999.7,N
1605034915.5,286046999.9,N
1605034935.3,286047001.0,N
1605034955.1,286047000.6,N
1605034975.9,286047000.2,N
1605034995.7,286047001.2,N
1605035015.6,286047000.2,N
1605035035.4,286046999.8,N
1605035055.2,286047002.3,N
1605035075.1,286047002.4,N
1605035076.0,286047002.4,N
1605035095.8,286047002.5,N
1605035115.7,286047002.0,N
1605035135.5,286047004.0,N
1605035155.3,286047004.3,N
1605035175.2,286047001.7,N
1605035195.9,286047001.6,N
1605035215.7,286047002.1,N
1605035235.6,286047002.4,N
1605035255.4,286047000.2,N
1605035275.3,286047002.5,N
1605035295.1,286047002.3,N
1605035296.0,286047002.3,N
1605035315.8,286047004.4,N
1605035335.7,286047002.2,N
1605035355.5,286047002.2,N
1605035375.3,286047001.7,N
1605035395.2,286047001.3,N
1605035415.0,286047001.5,N
1605035415.9,286047001.5,N
1605035435.8,286047004.4,Y
1605035455.6,286047000.2,P
1605035475.4,286047000.0,N
1605035495.3,286047002.3,N
1605035515.1,286047000.1,N
1605035535.9,286047002.4,N
1605035555.7,286047000.1,N
1605035575.5,286047000.3,N
1605035595.4,286047000.6,N
1605035615.2,286047001.0,N
1605035635.0,286046998.2,N
1605035635.9,286046998.2,N
1605035655.8,286047000.8,N
1605035675.6,286047000.9,N
1605035695.5,286046999.9,N
1605035715.3,286047000.7,N
1605035735.1,286047000.9,N
1605035755.9,286047002.3,N
1605035775.7,286047001.0,N
1605035795.5,286047000.4,N
1605035815.4,286047002.8,N
1605035835.2,286047001.6,N
1605035855.1,286047003.8,Y
1605035856.0,286047003.8,P
1605035875.8,286047005.3,P
1605035895.6,286047005.6,N
1605035915.5,286047004.1,N
1605035935.3,286047004.2,N
1605035955.2,286047002.6,N
1605035975.9,286047000.0,N
1605035995.7,286047000.9,N
1605036015.6,286047001.0,N
1605036035.4,286046998.6,N
1605036055.2,286046998.4,N
1605036075.1,286046996.5,N
1605036076.0,286046996.5,N
1605036095.8,286046999.2,N
1605036115.7,286046996.5,N
1605036135.5,286046997.1,N
1605036155.3,286046997.3,N
1605036175.2,286046997.0,N
1605036195.0,286046998.9,N
1605036195.9,286046998.9,N
1605036215.8,286047000.6,N
1605036235.6,286046998.8,N
1605036255.4,286046998.9,N
1605036275.3,286046998.4,N
1605036295.1,286046998.7,N
1605036315.8,286046997.1,N
1605036335.7,286046996.6,N
1605036355.5,286046996.6,N
1605036375.4,286046996.7,N
1605036395.2,286046996.7,N
1605036415.0,286046997.1,N
1605036415.9,286046997.1,N
1605036435.8,286046997.0,N
1605036455.6,286046997.4,N
1605036475.4,286046996.9,N
1605036495.3,286046996.6,N
1605036515.1,286046997.0,N
1605036535.9,286046997.5,N
1605036555.7,286046996.8,N
1605036575.5,286046997.7,N
1605036595.4,286046994.9,Y
1605036615.2,286046999.4,P
1605036635.0,286046999.1,N
1605036636.0,286046999.1,N
1605036655.8,286046998.4,N
1605036675.6,286047000.6,N
1605036695.5,286047001.0,N
1605036715.3,286047000.7,N
1605036735.1,286046998.6,N
1605036755.9,286046999.6,N
1605036775.7,286046998.1,N
1605036795.5,286047001.2,N
1605036815.4,286047000.5,N
1605036835.2,286046998.4,N
1605036855.1,286046998.9,N
1605036856.0,286046998.9,N
1605036875.8,286046998.8,N
1605036895.6,286046999.4,N
1605036915.5,286046999.3,N
1605036935.3,286046998.6,N
1605036955.2,286046998.9,N
1605036975.9,286047001.1,N
1605036995.7,286046998.9,N
1605037015.6,286046996.9,Y
1605037035.4,286046999.3,P
1605037055.2,286046996.5,P
1605037075.1,286046997.2,N
1605037076.0,286046997.2,N
1605037095.8,286046996.6,N
1605037115.7,286046999.2,N
1605037135.5,286046998.7,N
1605037155.3,286046999.6,N
1605037175.2,286046999.6,N
1605037195.0,286046997.1,N
1605037195.9,286046997.1,N
1605037215.8,286046996.8,N
1605037235.6,286046999.1,N
1605037255.4,286046999.0,N
1605037275.3,286047000.9,N
1605037295.1,286047000.2,N
1605037315.8,286047002.7,N
1605037335.7,286047001.3,N
1605037355.5,286047000.0,N
1605037375.4,286046999.9,N
1605037395.2,286047000.9,N
1605037415.0,286047001.0,N
1605037415.9,286047001.0,N
1605037435.8,286046999.9,N
1605037455.6,286046998.1,N
1605037475.4,286046996.7,N
1605037495.3,286046994.9,Y
1605037515.1,286046998.6,P
1605037535.9,286046998.2,P
1605037555.7,286047000.1,N
1605037575.5,286047001.2,N
1605037595.4,286046998.1,N
1605037615.2,286047000.9,N
1605037635.1,286046998.5,N
1605037636.0,286046998.5,N
1605037655.8,286046998.2,N
1605037675.6,286046998.3,N
1605037695.5,286047000.4,N
1605037715.3,286047000.6,N
1605037735.1,286047002.6,N
1605037755.9,286047002.8,N
1605037775.7,286047000.3,N
1605037795.6,286047001.8,N
1605037815.4,286047002.2,N
1605037835.2,286047000.1,N
1605037855.1,286047002.8,N
1605037856.0,286047002.8,N
1605037875.8,286046999.8,N
1605037895.6,286047000.5,N
1605037915.5,286047000.8,N
1605037935.3,286046998.8,N
1605037955.2,286046998.5,N
1605037975.9,286046998.2,N
1605037995.7,286046998.5,N
1605038015.6,286046999.0,N
1605038035.4,286046996.5,N
1605038055.3,286046998.3,N
1605038075.1,286047000.4,N
1605038076.0,286047000.4,N
1605038095.8,286047000.5,N
1605038115.7,286047000.9,N
1605038135.5,286047000.1,N
1605038155.3,286047000.7,N
1605038175.2,286047001.8,N
1605038195.0,286047002.6,N
1605038195.9,286047002.6,N
1605038215.8,286047002.0,N
1605038235.6,286047002.4,N
1605038255.4,286047002.8,N
1605038275.3,286046998.2,N
1605038295.1,286047000.9,N
1605038315.9,286047000.3,N
1605038335.7,286047001.0,N
1605038355.5,286047001.0,N
1605038375.4,286047000.9,N
1605038395.2,286046998.4,N
